| time (UTC) | temp F | wind direction | speed MPH | gust MPH | rain 1hr in | rain 24hr in | rain mn in | humidity % | barometer mb |
| 20260905234418 | 52 | 179 | 0.0 | 0.0 | 0.00 | 0.00 | 0.00 | 74 | 978.9 |
| 20260905233928 | 52 | 179 | 0.0 | 0.0 | 0.00 | 0.00 | 0.00 | 74 | 979.0 |
| 20260905233518 | 52 | 153 | 1.0 | 0.0 | 0.00 | 0.00 | 0.00 | 74 | 978.9 |
| 20260905233053 | 54 | 15 | 1.0 | 0.0 | 0.00 | 0.00 | 0.00 | 74 | 978.9 |
| 20260905232618 | 54 | 15 | 1.0 | 0.0 | 0.00 | 0.00 | 0.00 | 74 | 979.0 |
| 20260905232123 | 53 | 15 | 0.0 | 0.0 | 0.00 | 0.00 | 0.00 | 74 | 978.6 |
| 20260905231659 | 53 | 15 | 0.0 | 0.0 | 0.00 | 0.00 | 0.00 | 74 | 978.9 |
| 20260905231228 | 53 | 15 | 0.0 | 0.0 | 0.00 | 0.00 | 0.00 | 74 | 978.7 |
| 20260905230748 | 53 | 15 | 0.0 | 1.0 | 0.00 | 0.00 | 0.00 | 76 | 978.7 |
| 20260905230303 | 53 | 15 | 0.0 | 0.0 | 0.00 | 0.00 | 0.00 | 76 | 978.8 |
| 20260905225828 | 54 | 15 | 0.0 | 0.0 | 0.00 | 0.00 | 0.00 | 73 | 978.8 |
| 20260905225358 | 55 | 15 | 1.0 | 1.0 | 0.00 | 0.00 | 0.00 | 73 | 978.7 |
| 20260905224938 | 55 | 15 | 0.0 | 1.0 | 0.00 | 0.00 | 0.00 | 72 | 978.5 |
| 20260905224458 | 55 | 15 | 0.0 | 1.0 | 0.00 | 0.00 | 0.00 | 72 | 978.6 |
| 20260905224038 | 55 | 15 | 0.0 | 1.0 | 0.00 | 0.00 | 0.00 | 71 | 978.6 |
| 20260905223543 | 56 | 24 | 0.0 | 0.0 | 0.00 | 0.00 | 0.00 | 71 | 978.4 |
| 20260905223058 | 56 | 24 | 0.0 | 1.0 | 0.00 | 0.00 | 0.00 | 69 | 978.6 |
| 20260905222613 | 56 | 2 | 0.0 | 1.0 | 0.00 | 0.00 | 0.00 | 60 | 978.5 |
| 20260905222148 | 56 | 2 | 0.0 | 1.0 | 0.00 | 0.00 | 0.00 | 60 | 978.5 |
| 20260905221653 | 55 | 2 | 1.0 | 1.0 | 0.00 | 0.00 | 0.00 | 60 | 978.3 |
| 20260905221223 | 55 | 294 | 1.0 | 1.0 | 0.00 | 0.00 | 0.00 | 60 | 978.3 |
| 20260905220748 | 55 | 294 | 2.0 | 3.0 | 0.00 | 0.00 | 0.00 | 60 | 978.3 |
| 20260905220318 | 55 | 294 | 2.0 | 1.0 | 0.00 | 0.00 | 0.00 | 60 | 978.2 |
| 20260905215833 | 55 | 294 | 1.0 | 3.0 | 0.00 | 0.00 | 0.00 | 60 | 978.1 |
| 20260905215418 | 55 | 293 | 2.0 | 3.0 | 0.00 | 0.00 | 0.00 | 60 | 978.3 |
| 20260905214948 | 55 | 293 | 1.0 | 3.0 | 0.00 | 0.00 | 0.00 | 60 | 978.5 |
| 20260905214513 | 57 | 293 | 1.0 | 3.0 | 0.00 | 0.00 | 0.00 | 60 | 978.4 |
| 20260905214023 | 57 | 293 | 1.0 | 3.0 | 0.00 | 0.00 | 0.00 | 60 | 978.3 |
| 20260905213553 | 57 | 293 | 1.0 | 3.0 | 0.00 | 0.00 | 0.00 | 60 | 978.5 |
| 20260905213118 | 57 | 292 | 3.0 | 3.0 | 0.00 | 0.00 | 0.00 | 60 | 978.2 |
| 20260905212658 | 57 | 339 | 3.0 | 3.0 | 0.00 | 0.00 | 0.00 | 60 | 978.3 |
| 20260905212218 | 58 | 339 | 1.0 | 1.0 | 0.00 | 0.00 | 0.00 | 60 | 978.3 |
| 20260905211738 | 58 | 339 | 1.0 | 1.0 | 0.00 | 0.00 | 0.00 | 60 | 978.3 |
| 20260905211318 | 58 | 339 | 0.0 | 1.0 | 0.00 | 0.00 | 0.00 | 60 | 978.1 |
| 20260905210858 | 59 | 339 | 0.0 | 1.0 | 0.00 | 0.00 | 0.00 | 60 | 978.3 |
| 20260905210428 | 59 | 339 | 0.0 | 1.0 | 0.00 | 0.00 | 0.00 | 60 | 978.1 |
| 20260905205948 | 59 | 339 | 0.0 | 1.0 | 0.00 | 0.00 | 0.00 | 60 | 978.0 |
| 20260905205523 | 59 | 339 | 0.0 | 1.0 | 0.00 | 0.00 | 0.00 | 60 | 978.0 |
| 20260905205048 | 60 | 339 | 1.0 | 1.0 | 0.00 | 0.00 | 0.00 | 60 | 978.0 |
| 20260905204633 | 60 | 339 | 0.0 | 1.0 | 0.00 | 0.00 | 0.00 | 56 | 977.9 |
| 20260905204158 | 61 | 339 | 0.0 | 1.0 | 0.00 | 0.00 | 0.00 | 56 | 978.0 |
| 20260905203728 | 61 | 339 | 0.0 | 1.0 | 0.00 | 0.00 | 0.00 | 56 | 977.8 |
| 20260905203243 | 61 | 340 | 5.0 | 3.0 | 0.00 | 0.00 | 0.00 | 56 | 978.0 |
| 20260905202818 | 61 | 340 | 5.0 | 3.0 | 0.00 | 0.00 | 0.00 | 56 | 977.7 |
| 20260905202343 | 61 | 295 | 5.0 | 5.0 | 0.00 | 0.00 | 0.00 | 56 | 977.7 |
| 20260905201913 | 61 | 295 | 5.0 | 5.0 | 0.00 | 0.00 | 0.00 | 54 | 977.7 |
| 20260905201443 | 61 | 295 | 5.0 | 5.0 | 0.00 | 0.00 | 0.00 | 54 | 977.4 |
| 20260905201008 | 61 | 348 | 2.0 | 13.0 | 0.00 | 0.00 | 0.00 | 54 | 977.8 |
| 20260905200559 | 61 | 348 | 5.0 | 13.0 | 0.00 | 0.00 | 0.00 | 54 | 977.7 |
| 20260905200139 | 61 | 348 | 5.0 | 3.0 | 0.00 | 0.00 | 0.00 | 54 | 977.5 |
| 20260905195718 | 61 | 348 | 4.0 | 3.0 | 0.00 | 0.00 | 0.00 | 54 | 977.5 |
| 20260905195306 | 61 | 348 | 4.0 | 3.0 | 0.00 | 0.00 | 0.00 | 54 | 977.4 |
| 20260905194843 | 62 | 348 | 4.0 | 3.0 | 0.00 | 0.00 | 0.00 | 54 | 977.3 |
| 20260905194408 | 62 | 303 | 4.0 | 9.0 | 0.00 | 0.00 | 0.00 | 54 | 977.3 |
| 20260905193948 | 62 | 303 | 4.0 | 9.0 | 0.00 | 0.00 | 0.00 | 54 | 977.6 |
| 20260905193503 | 62 | 303 | 4.0 | 9.0 | 0.00 | 0.00 | 0.00 | 54 | 977.2 |
| 20260905193038 | 62 | 303 | 3.0 | 7.0 | 0.00 | 0.00 | 0.00 | 54 | 977.3 |
| 20260905192609 | 62 | 303 | 5.0 | 7.0 | 0.00 | 0.00 | 0.00 | 54 | 977.3 |
| 20260905192138 | 62 | 303 | 3.0 | 7.0 | 0.00 | 0.00 | 0.00 | 54 | 977.2 |
| 20260905191733 | 63 | 303 | 3.0 | 7.0 | 0.00 | 0.00 | 0.00 | 54 | 977.3 |
| 20260905191259 | 63 | 329 | 3.0 | 5.0 | 0.00 | 0.00 | 0.00 | 54 | 977.2 |
| 20260905190828 | 63 | 347 | 3.0 | 7.0 | 0.00 | 0.00 | 0.00 | 54 | 977.4 |
| 20260905190338 | 63 | 347 | 4.0 | 5.0 | 0.00 | 0.00 | 0.00 | 47 | 977.3 |
| 20260905185908 | 63 | 345 | 4.0 | 5.0 | 0.00 | 0.00 | 0.00 | 47 | 977.4 |
| 20260905185433 | 63 | 345 | 1.0 | 3.0 | 0.00 | 0.00 | 0.00 | 47 | 977.3 |
| 20260905185003 | 64 | 345 | 2.0 | 5.0 | 0.00 | 0.00 | 0.00 | 47 | 977.1 |
| 20260905184533 | 64 | 345 | 0.0 | 5.0 | 0.00 | 0.00 | 0.00 | 47 | 977.2 |
| 20260905184108 | 64 | 345 | 4.0 | 7.0 | 0.00 | 0.00 | 0.00 | 47 | 977.1 |
| 20260905183648 | 64 | 345 | 4.0 | 7.0 | 0.00 | 0.00 | 0.00 | 47 | 977.0 |
| 20260905183238 | 64 | 345 | 4.0 | 3.0 | 0.00 | 0.00 | 0.00 | 47 | 977.1 |
| 20260905182808 | 64 | 345 | 4.0 | 3.0 | 0.00 | 0.00 | 0.00 | 47 | 976.9 |
| 20260905182353 | 64 | 337 | 4.0 | 9.0 | 0.00 | 0.00 | 0.00 | 47 | 976.8 |
| 20260905181943 | 64 | 337 | 4.0 | 9.0 | 0.00 | 0.00 | 0.00 | 47 | 977.0 |
| 20260905181458 | 65 | 337 | 5.0 | 7.0 | 0.00 | 0.00 | 0.00 | 47 | 976.8 |
| 20260905181018 | 65 | 330 | 5.0 | 9.0 | 0.00 | 0.00 | 0.00 | 47 | 976.6 |
| 20260905180538 | 65 | 330 | 4.0 | 9.0 | 0.00 | 0.00 | 0.00 | 47 | 976.5 |
| 20260905180128 | 66 | 330 | 6.0 | 7.0 | 0.00 | 0.00 | 0.00 | 47 | 976.5 |
| 20260905175658 | 66 | 330 | 5.0 | 9.0 | 0.00 | 0.00 | 0.00 | 47 | 976.4 |
| 20260905175223 | 66 | 330 | 5.0 | 9.0 | 0.00 | 0.00 | 0.00 | 47 | 976.3 |
| 20260905174748 | 66 | 330 | 5.0 | 7.0 | 0.00 | 0.00 | 0.00 | 47 | 976.3 |
| 20260905174327 | 66 | 0 | 4.0 | 7.0 | 0.00 | 0.00 | 0.00 | 47 | 976.3 |
| 20260905173904 | 68 | 0 | 4.0 | 11.0 | 0.00 | 0.00 | 0.00 | 47 | 976.2 |
| 20260905173458 | 68 | 0 | 5.0 | 9.0 | 0.00 | 0.00 | 0.00 | 47 | 976.2 |
| 20260905173028 | 68 | 0 | 7.0 | 13.0 | 0.00 | 0.00 | 0.00 | 47 | 976.2 |
| 20260905172548 | 68 | 336 | 6.0 | 9.0 | 0.00 | 0.00 | 0.00 | 45 | 976.1 |
| 20260905172113 | 68 | 355 | 6.0 | 11.0 | 0.00 | 0.00 | 0.00 | 45 | 976.1 |
| 20260905171643 | 68 | 345 | 5.0 | 11.0 | 0.00 | 0.00 | 0.00 | 45 | 976.1 |
| 20260905171212 | 68 | 345 | 9.0 | 11.0 | 0.00 | 0.00 | 0.00 | 42 | 976.0 |
| 20260905170748 | 68 | 4 | 9.0 | 22.0 | 0.00 | 0.00 | 0.00 | 42 | 976.0 |
| 20260905170338 | 70 | 4 | 9.0 | 22.0 | 0.00 | 0.00 | 0.00 | 42 | 976.0 |
| 20260905165924 | 70 | 340 | 5.0 | 13.0 | 0.00 | 0.00 | 0.00 | 42 | 975.9 |
| 20260905165438 | 70 | 340 | 5.0 | 14.0 | 0.00 | 0.00 | 0.00 | 42 | 975.9 |
| 20260905165018 | 70 | 356 | 5.0 | 20.0 | 0.00 | 0.00 | 0.00 | 42 | 975.8 |
| 20260905164533 | 70 | 356 | 11.0 | 16.0 | 0.00 | 0.00 | 0.00 | 42 | 976.0 |
| 20260905164113 | 70 | 356 | 11.0 | 16.0 | 0.00 | 0.00 | 0.00 | 42 | 975.8 |
| 20260905163628 | 70 | 356 | 11.0 | 23.0 | 0.00 | 0.00 | 0.00 | 41 | 975.8 |
| 20260905163153 | 70 | 307 | 12.0 | 20.0 | 0.00 | 0.00 | 0.00 | 41 | 975.8 |
| 20260905162733 | 70 | 307 | 7.0 | 20.0 | 0.00 | 0.00 | 0.00 | 41 | 975.6 |
| 20260905162305 | 70 | 293 | 7.0 | 18.0 | 0.00 | 0.00 | 0.00 | 41 | 975.6 |
| 20260905161833 | 70 | 346 | 7.0 | 14.0 | 0.00 | 0.00 | 0.00 | 41 | 975.5 |
| 20260905161418 | 70 | 274 | 7.0 | 16.0 | 0.00 | 0.00 | 0.00 | 41 | 975.2 |
| 20260905161003 | 70 | 349 | 7.0 | 16.0 | 0.00 | 0.00 | 0.00 | 41 | 975.1 |
| 20260905160538 | 70 | 349 | 7.0 | 16.0 | 0.00 | 0.00 | 0.00 | 41 | 975.2 |
| 20260905155643 | 70 | 356 | 9.0 | 31.0 | 0.00 | 0.00 | 0.00 | 41 | 975.1 |
| 20260905155153 | 70 | 335 | 4.0 | 20.0 | 0.00 | 0.00 | 0.00 | 41 | 975.2 |
| 20260905154723 | 70 | 352 | 10.0 | 18.0 | 0.00 | 0.00 | 0.00 | 41 | 975.0 |
| 20260905154238 | 70 | 352 | 11.0 | 18.0 | 0.00 | 0.00 | 0.00 | 41 | 975.0 |
| 20260905153758 | 70 | 358 | 13.0 | 31.0 | 0.00 | 0.00 | 0.00 | 41 | 974.9 |
| 20260905153327 | 70 | 339 | 14.0 | 13.0 | 0.00 | 0.00 | 0.00 | 41 | 975.0 |
| 20260905152843 | 71 | 350 | 14.0 | 23.0 | 0.00 | 0.00 | 0.00 | 41 | 974.9 |
| 20260905152403 | 71 | 347 | 14.0 | 20.0 | 0.00 | 0.00 | 0.00 | 40 | 974.7 |
| 20260905151948 | 71 | 5 | 14.0 | 20.0 | 0.00 | 0.00 | 0.00 | 40 | 975.0 |
| 20260905151533 | 71 | 358 | 16.0 | 23.0 | 0.00 | 0.00 | 0.00 | 40 | 974.9 |
| 20260905151118 | 71 | 287 | 14.0 | 23.0 | 0.00 | 0.00 | 0.00 | 40 | 974.7 |
| 20260905150643 | 71 | 242 | 8.0 | 23.0 | 0.00 | 0.00 | 0.00 | 40 | 974.7 |
| 20260905150208 | 71 | 9 | 8.0 | 22.0 | 0.00 | 0.00 | 0.00 | 40 | 974.9 |
| 20260905145748 | 71 | 284 | 15.0 | 22.0 | 0.00 | 0.00 | 0.00 | 40 | 974.6 |
| 20260905145308 | 71 | 284 | 13.0 | 31.0 | 0.00 | 0.00 | 0.00 | 40 | 974.5 |
| 20260905144858 | 71 | 284 | 13.0 | 25.0 | 0.00 | 0.00 | 0.00 | 40 | 974.4 |
| 20260905144413 | 71 | 286 | 7.0 | 14.0 | 0.00 | 0.00 | 0.00 | 40 | 974.6 |
| 20260905143923 | 71 | 330 | 19.0 | 22.0 | 0.00 | 0.00 | 0.00 | 40 | 974.4 |
| 20260905143513 | 71 | 330 | 9.0 | 20.0 | 0.00 | 0.00 | 0.00 | 40 | 974.5 |
| 20260905143103 | 72 | 11 | 9.0 | 18.0 | 0.00 | 0.00 | 0.00 | 40 | 974.4 |
| 20260905142638 | 72 | 305 | 9.0 | 25.0 | 0.00 | 0.00 | 0.00 | 39 | 974.2 |
| 20260905142153 | 71 | 305 | 13.0 | 29.0 | 0.00 | 0.00 | 0.00 | 41 | 974.7 |
| 20260905141718 | 71 | 91 | 14.0 | 16.0 | 0.00 | 0.00 | 0.00 | 41 | 974.6 |
| 20260905141238 | 71 | 9 | 19.0 | 34.0 | 0.00 | 0.00 | 0.00 | 100 | |
| 20260905140818 | 71 | 282 | 16.0 | 22.0 | 0.00 | 0.00 | 0.00 | 42 | 974.6 |
| 20260905140333 | 71 | 263 | 11.0 | 27.0 | 0.00 | 0.00 | 0.00 | 42 | 974.6 |
| 20260905135838 | 71 | 347 | 7.0 | 18.0 | 0.00 | 0.00 | 0.00 | 42 | 974.4 |
| 20260905135353 | 70 | 8 | 0.0 | 20.0 | 0.00 | 0.00 | 0.00 | 42 | 974.3 |
| 20260905134908 | 71 | 0 | 0.0 | 40.0 | 0.00 | 0.00 | 0.00 | 42 | 974.3 |
| 20260905134428 | 70 | 0 | 0.0 | 23.0 | 0.00 | 0.00 | 0.00 | 43 | 974.4 |
| 20260905133948 | 70 | 329 | 10.0 | 9.0 | 0.00 | 0.00 | 0.00 | 46 | 974.2 |
| 20260905133533 | 70 | 319 | 10.0 | 27.0 | 0.00 | 0.00 | 0.00 | 46 | 974.3 |
| 20260905133108 | 69 | 298 | 10.0 | 11.0 | 0.00 | 0.00 | 0.00 | 46 | 974.2 |
| 20260905132658 | 69 | 319 | 10.0 | 33.0 | 0.00 | 0.00 | 0.00 | 46 | 974.4 |
| 20260905132213 | 70 | 236 | 8.0 | 16.0 | 0.00 | 0.00 | 0.00 | 46 | 973.9 |
| 20260905131748 | 70 | 312 | 13.0 | 34.0 | 0.00 | 0.00 | 0.00 | 45 | 974.1 |
| 20260905131303 | 70 | 343 | 24.0 | 34.0 | 0.00 | 0.00 | 0.00 | 45 | 974.2 |
| 20260905130813 | 70 | 21 | 22.0 | 18.0 | 0.00 | 0.00 | 0.00 | 46 | 974.2 |
| 20260905130333 | 70 | 352 | 14.0 | 14.0 | 0.00 | 0.00 | 0.00 | 46 | 974.2 |
| 20260905125843 | 70 | 300 | 14.0 | 20.0 | 0.00 | 0.00 | 0.00 | 47 | 974.1 |
| 20260905125423 | 71 | 21 | 9.0 | 0.0 | 0.00 | 0.00 | 0.00 | 46 | 974.2 |
| 20260905124958 | 71 | 303 | 6.0 | 13.0 | 0.00 | 0.00 | 0.00 | 45 | 974.2 |
| 20260905124528 | 70 | 324 | 8.0 | 36.0 | 0.00 | 0.00 | 0.00 | 45 | 974.1 |
| 20260905124048 | 70 | 204 | 17.0 | 16.0 | 0.00 | 0.00 | 0.00 | 45 | 974.1 |
| 20260905123613 | 71 | 120 | 16.0 | 18.0 | 0.00 | 0.00 | 0.00 | 50 | 973.9 |
| 20260905123118 | 70 | 310 | 11.0 | 16.0 | 0.00 | 0.00 | 0.00 | 50 | 974.2 |
| 20260905122648 | 70 | 310 | 17.0 | 16.0 | 0.00 | 0.00 | 0.00 | 50 | 974.0 |
| 20260905122208 | 69 | 15 | 8.0 | 20.0 | 0.00 | 0.00 | 0.00 | 50 | 974.3 |
| 20260905121733 | 69 | 271 | 14.0 | 20.0 | 0.00 | 0.00 | 0.00 | 50 | 974.3 |
| 20260905121258 | 68 | 265 | 7.0 | 22.0 | 0.00 | 0.00 | 0.00 | 49 | 974.4 |
| 20260905120828 | 68 | 316 | 7.0 | 16.0 | 0.00 | 0.00 | 0.00 | 52 | 974.0 |
| 20260905120358 | 68 | 263 | 7.0 | 27.0 | 0.00 | 0.00 | 0.00 | 52 | 973.9 |
| 20260905115913 | 69 | 134 | 7.0 | 25.0 | 0.00 | 0.00 | 0.00 | 52 | 974.3 |
| 20260905115428 | 68 | 134 | 9.0 | 27.0 | 0.00 | 0.00 | 0.00 | 52 | 974.3 |
| 20260905114943 | 68 | 302 | 9.0 | 25.0 | 0.00 | 0.00 | 0.00 | 52 | 974.0 |
| 20260905114518 | 68 | 339 | 5.0 | 23.0 | 0.00 | 0.00 | 0.00 | 52 | 974.1 |
| 20260905114058 | 68 | 304 | 5.0 | 18.0 | 0.00 | 0.00 | 0.00 | 53 | 974.1 |
| 20260905113633 | 68 | 311 | 6.0 | 14.0 | 0.00 | 0.00 | 0.00 | 53 | 974.4 |
| 20260905113148 | 67 | 321 | 14.0 | 13.0 | 0.00 | 0.00 | 0.00 | 53 | 974.3 |
| 20260905112733 | 67 | 344 | 8.0 | 23.0 | 0.00 | 0.00 | 0.00 | 57 | 974.3 |
| 20260905112318 | 67 | 341 | 12.0 | 23.0 | 0.00 | 0.00 | 0.00 | 57 | 974.5 |
| 20260905111853 | 67 | 4 | 9.0 | 25.0 | 0.00 | 0.00 | 0.00 | 57 | 974.5 |
| 20260905111439 | 67 | 152 | 9.0 | 18.0 | 0.00 | 0.00 | 0.00 | 57 | 974.4 |
| 20260905110948 | 67 | 152 | 10.0 | 20.0 | 0.00 | 0.00 | 0.00 | 57 | 974.6 |
| 20260905110518 | 68 | 346 | 10.0 | 23.0 | 0.00 | 0.00 | 0.00 | 57 | 974.5 |
| 20260905110038 | 68 | 346 | 10.0 | 27.0 | 0.00 | 0.00 | 0.00 | 57 | 974.6 |
| 20260905105613 | 67 | 346 | 7.0 | 13.0 | 0.00 | 0.00 | 0.00 | 57 | 974.4 |
| 20260905105143 | 67 | 244 | 16.0 | 14.0 | 0.00 | 0.00 | 0.00 | 55 | 974.5 |
| 20260905104713 | 67 | 273 | 15.0 | 16.0 | 0.00 | 0.00 | 0.00 | 55 | 974.7 |
| 20260905104223 | 67 | 273 | 7.0 | 18.0 | 0.00 | 0.00 | 0.00 | 57 | 974.6 |
| 20260905103738 | 67 | 318 | 11.0 | 23.0 | 0.00 | 0.00 | 0.00 | 57 | 974.6 |
| 20260905103318 | 67 | 1 | 11.0 | 20.0 | 0.00 | 0.00 | 0.00 | 57 | 974.5 |
| 20260905102838 | 66 | 355 | 2.0 | 16.0 | 0.00 | 0.00 | 0.00 | 57 | 974.6 |
| 20260905102413 | 66 | 264 | 2.0 | 23.0 | 0.00 | 0.00 | 0.00 | 58 | 974.7 |
| 20260905101948 | 67 | 12 | 6.0 | 23.0 | 0.00 | 0.00 | 0.00 | 58 | 974.6 |
| 20260905101523 | 67 | 302 | 6.0 | 23.0 | 0.00 | 0.00 | 0.00 | 58 | 974.6 |
| 20260905101118 | 67 | 302 | 7.0 | 14.0 | 0.00 | 0.00 | 0.00 | 62 | 974.7 |
| 20260905100703 | 67 | 321 | 14.0 | 13.0 | 0.00 | 0.00 | 0.00 | 62 | 974.6 |
| 20260905100238 | 67 | 323 | 7.0 | 16.0 | 0.00 | 0.00 | 0.00 | 62 | 974.6 |
| 20260905095818 | 66 | 323 | 8.0 | 11.0 | 0.00 | 0.00 | 0.00 | 62 | 974.7 |
| 20260905095348 | 65 | 323 | 4.0 | 18.0 | 0.00 | 0.00 | 0.00 | 62 | 974.7 |
| 20260905094853 | 66 | 323 | 6.0 | 18.0 | 0.00 | 0.00 | 0.00 | 62 | 974.6 |
| 20260905094428 | 66 | 0 | 2.0 | 16.0 | 0.00 | 0.00 | 0.00 | 62 | 974.6 |
| 20260905093958 | 65 | 0 | 7.0 | 9.0 | 0.00 | 0.00 | 0.00 | 62 | 974.6 |
| 20260905093548 | 65 | 0 | 7.0 | 0.0 | 0.00 | 0.00 | 0.00 | 100 | 974.6 |
| 20260905093110 | 65 | 319 | 4.0 | 16.0 | 0.00 | 0.00 | 0.00 | 67 | 974.6 |
| 20260905092648 | 65 | 184 | 4.0 | 11.0 | 0.00 | 0.00 | 0.00 | 67 | 974.7 |
| 20260905092208 | 65 | 343 | 9.0 | 13.0 | 0.00 | 0.00 | 0.00 | 67 | 974.5 |
| 20260905091743 | 64 | 165 | 9.0 | 18.0 | 0.00 | 0.00 | 0.00 | 67 | 974.6 |
| 20260905091308 | 64 | 247 | 1.0 | 20.0 | 0.00 | 0.00 | 0.00 | 67 | 974.6 |
| 20260905090828 | 64 | 289 | 8.0 | 11.0 | 0.00 | 0.00 | 0.00 | 67 | 974.4 |
| 20260905090359 | 64 | 275 | 8.0 | 5.0 | 0.00 | 0.00 | 0.00 | 67 | 974.7 |
| 20260905085943 | 62 | 278 | 5.0 | 5.0 | 0.00 | 0.00 | 0.00 | 67 | 974.8 |
| 20260905085448 | 62 | 352 | 6.0 | 13.0 | 0.00 | 0.00 | 0.00 | 67 | 974.4 |
| 20260905085028 | 63 | 317 | 6.0 | 18.0 | 0.00 | 0.00 | 0.00 | 67 | 974.4 |
| 20260905084548 | 63 | 317 | 6.0 | 20.0 | 0.00 | 0.00 | 0.00 | 64 | 974.5 |
| 20260905084123 | 64 | 317 | 12.0 | 20.0 | 0.00 | 0.00 | 0.00 | 64 | 974.5 |
| 20260905083718 | 64 | 213 | 4.0 | 14.0 | 0.00 | 0.00 | 0.00 | 69 | 974.5 |
| 20260905083253 | 63 | 223 | 4.0 | 14.0 | 0.00 | 0.00 | 0.00 | 69 | 974.5 |
| 20260905082838 | 62 | 307 | 2.0 | 11.0 | 0.00 | 0.00 | 0.00 | 69 | 974.4 |
| 20260905082408 | 62 | 279 | 9.0 | 7.0 | 0.00 | 0.00 | 0.00 | 75 | 974.4 |
| 20260905081918 | 61 | 311 | 9.0 | 16.0 | 0.00 | 0.00 | 0.00 | 75 | 974.5 |
| 20260905081458 | 62 | 311 | 9.0 | 16.0 | 0.00 | 0.00 | 0.00 | 75 | 974.5 |
| 20260905081043 | 62 | 314 | 9.0 | 16.0 | 0.00 | 0.00 | 0.00 | 75 | 974.2 |
| 20260905080618 | 62 | 266 | 12.0 | 20.0 | 0.00 | 0.00 | 0.00 | 75 | 974.3 |
| 20260905080158 | 61 | 328 | 4.0 | 5.0 | 0.00 | 0.00 | 0.00 | 75 | 974.4 |
| 20260905075744 | 62 | 328 | 4.0 | 5.0 | 0.00 | 0.00 | 0.00 | 80 | 974.3 |
| 20260905075318 | 61 | 322 | 4.0 | 5.0 | 0.00 | 0.00 | 0.00 | 80 | 974.4 |
| 20260905074853 | 60 | 322 | 4.0 | 9.0 | 0.00 | 0.00 | 0.00 | 80 | 974.1 |
| 20260905074433 | 60 | 118 | 4.0 | 7.0 | 0.00 | 0.00 | 0.00 | 80 | 974.0 |
| 20260905074028 | 60 | 312 | 5.0 | 16.0 | 0.00 | 0.00 | 0.00 | 80 | 974.2 |
| 20260905073548 | 60 | 319 | 5.0 | 13.0 | 0.00 | 0.00 | 0.00 | 80 | 974.1 |
| 20260905073128 | 61 | 319 | 5.0 | 11.0 | 0.00 | 0.00 | 0.00 | 79 | 974.1 |
| 20260905072653 | 62 | 292 | 5.0 | 14.0 | 0.00 | 0.00 | 0.00 | 80 | 973.9 |
| 20260905072153 | 62 | 304 | 4.0 | 14.0 | 0.00 | 0.00 | 0.00 | 80 | 974.0 |
| 20260905071723 | 61 | 113 | 6.0 | 13.0 | 0.00 | 0.00 | 0.00 | 80 | 973.9 |
| 20260905071243 | 61 | 281 | 4.0 | 13.0 | 0.00 | 0.00 | 0.00 | 80 | 974.0 |
| 20260905070833 | 60 | 310 | 4.0 | 5.0 | 0.00 | 0.00 | 0.00 | 80 | 974.0 |
| 20260905070411 | 60 | 285 | 4.0 | 9.0 | 0.00 | 0.00 | 0.00 | 80 | 973.8 |
| 20260905070000 | 60 | 334 | 4.0 | 9.0 | 0.00 | 0.00 | 0.00 | 80 | 973.8 |
| 20260905065548 | 60 | 334 | 4.0 | 9.0 | 0.00 | 0.00 | 0.00 | 80 | 974.1 |
| 20260905065113 | 61 | 335 | 4.0 | 9.0 | 0.00 | 0.00 | 0.00 | 80 | 973.8 |
| 20260905064658 | 60 | 261 | 5.0 | 7.0 | 0.00 | 0.00 | 0.00 | 87 | 973.7 |
| 20260905064223 | 59 | 271 | 4.0 | 5.0 | 0.00 | 0.00 | 0.00 | 87 | 973.8 |
| 20260905063803 | 59 | 71 | 1.0 | 7.0 | 0.00 | 0.00 | 0.00 | 87 | 973.6 |
| 20260905063328 | 58 | 327 | 3.0 | 5.0 | 0.00 | 0.00 | 0.00 | 87 | 973.7 |
| 20260905062833 | 58 | 322 | 3.0 | 5.0 | 0.00 | 0.00 | 0.00 | 87 | 973.7 |
| 20260905062358 | 58 | 111 | 3.0 | 3.0 | 0.00 | 0.00 | 0.00 | 87 | 973.7 |
| 20260905061903 | 58 | 149 | 1.0 | 7.0 | 0.00 | 0.00 | 0.00 | 87 | 973.6 |
| 20260905061458 | 58 | 1 | 1.0 | 1.0 | 0.00 | 0.00 | 0.00 | 87 | 973.5 |
| 20260905061028 | 57 | 1 | 5.0 | 9.0 | 0.00 | 0.00 | 0.00 | 87 | 973.3 |
| 20260905060553 | 58 | 1 | 1.0 | 9.0 | 0.00 | 0.00 | 0.00 | 87 | 973.4 |
| 20260905060138 | 58 | 228 | 1.0 | 5.0 | 0.00 | 0.00 | 0.00 | 83 | 973.1 |
| 20260905055639 | 57 | 228 | 1.0 | 5.0 | 0.00 | 0.00 | 0.00 | 83 | 973.2 |
| 20260905055148 | 57 | 228 | 2.0 | 5.0 | 0.00 | 0.00 | 0.00 | 83 | 973.3 |
| 20260905054713 | 57 | 228 | 1.0 | 5.0 | 0.00 | 0.00 | 0.00 | 83 | 973.0 |
| 20260905054253 | 57 | 258 | 1.0 | 7.0 | 0.00 | 0.00 | 0.00 | 83 | 973.1 |
| 20260905053810 | 57 | 182 | 1.0 | 7.0 | 0.00 | 0.00 | 0.00 | 83 | 973.2 |
| 20260905053339 | 57 | 182 | 1.0 | 7.0 | 0.00 | 0.00 | 0.00 | 83 | 973.1 |
| 20260905052843 | 56 | 182 | 3.0 | 3.0 | 0.00 | 0.00 | 0.00 | 83 | 973.2 |
| 20260905052351 | 56 | 182 | 3.0 | 7.0 | 0.00 | 0.00 | 0.00 | 83 | 973.0 |
| 20260905051918 | 56 | 182 | 1.0 | 5.0 | 0.00 | 0.00 | 0.00 | 83 | 973.0 |
| 20260905051423 | 56 | 336 | 1.0 | 7.0 | 0.00 | 0.00 | 0.00 | 83 | 973.1 |
| 20260905050958 | 56 | 336 | 1.0 | 7.0 | 0.00 | 0.00 | 0.00 | 83 | 973.0 |
| 20260905050523 | 56 | 336 | 0.0 | 7.0 | 0.00 | 0.00 | 0.00 | 83 | 972.9 |
| 20260905050053 | 56 | 351 | 1.0 | 1.0 | 0.00 | 0.00 | 0.00 | 83 | 972.6 |
| 20260905045623 | 56 | 351 | 0.0 | 1.0 | 0.00 | 0.00 | 0.00 | 83 | 972.8 |
| 20260905045158 | 56 | 188 | 0.0 | 1.0 | 0.00 | 0.00 | 0.00 | 83 | 972.5 |
| 20260905044738 | 57 | 188 | 0.0 | 1.0 | 0.00 | 0.00 | 0.00 | 83 | 972.5 |
| 20260905044253 | 57 | 188 | 1.0 | 3.0 | 0.00 | 0.00 | 0.00 | 83 | 972.4 |
| 20260905043803 | 57 | 188 | 1.0 | 3.0 | 0.00 | 0.00 | 0.00 | 83 | 972.3 |
| 20260905043333 | 57 | 188 | 0.0 | 1.0 | 0.00 | 0.00 | 0.00 | 86 | 972.4 |
| 20260905042908 | 57 | 188 | 0.0 | 1.0 | 0.00 | 0.00 | 0.00 | 86 | 972.3 |
| 20260905042443 | 57 | 188 | 0.0 | 1.0 | 0.00 | 0.00 | 0.00 | 86 | 972.2 |
| 20260905042018 | 56 | 188 | 1.0 | 1.0 | 0.00 | 0.00 | 0.00 | 86 | 972.1 |
| 20260905041533 | 55 | 188 | 0.0 | 1.0 | 0.00 | 0.00 | 0.00 | 86 | 972.1 |
| 20260905041128 | 55 | 188 | 0.0 | 1.0 | 0.00 | 0.00 | 0.00 | 86 | 972.1 |
| 20260905040643 | 55 | 188 | 0.0 | 3.0 | 0.00 | 0.00 | 0.00 | 85 | 972.1 |
| 20260905040153 | 55 | 188 | 2.0 | 0.0 | 0.00 | 0.00 | 0.00 | 85 | 971.9 |
| 20260905035743 | 55 | 188 | 2.0 | 0.0 | 0.00 | 0.00 | 0.00 | 85 | 971.8 |
| 20260905035313 | 55 | 217 | 1.0 | 0.0 | 0.00 | 0.00 | 0.00 | 85 | 971.8 |
| 20260905034843 | 55 | 217 | 1.0 | 1.0 | 0.00 | 0.00 | 0.00 | 85 | 971.9 |
| 20260905034418 | 55 | 217 | 0.0 | 1.0 | 0.00 | 0.00 | 0.00 | 84 | 971.9 |
| 20260905033938 | 55 | 236 | 3.0 | 3.0 | 0.00 | 0.00 | 0.00 | 84 | 971.7 |
| 20260905033513 | 55 | 236 | 1.0 | 3.0 | 0.00 | 0.00 | 0.00 | 84 | 972.0 |
| 20260905033033 | 55 | 105 | 0.0 | 3.0 | 0.00 | 0.00 | 0.00 | 84 | 971.8 |
| 20260905032558 | 55 | 105 | 1.0 | 3.0 | 0.00 | 0.00 | 0.00 | 84 | 971.7 |
| 20260905032113 | 55 | 151 | 3.0 | 3.0 | 0.00 | 0.00 | 0.00 | 84 | 971.9 |
| 20260905031638 | 55 | 151 | 0.0 | 0.0 | 0.00 | 0.00 | 0.00 | 72 | 971.7 |
| 20260905031208 | 55 | 153 | 0.0 | 0.0 | 0.00 | 0.00 | 0.00 | 72 | 972.0 |
| 20260905030808 | 55 | 335 | 0.0 | 1.0 | 0.00 | 0.00 | 0.00 | 72 | 972.0 |
| 20260905030323 | 55 | 335 | 0.0 | 5.0 | 0.00 | 0.00 | 0.00 | 72 | 971.9 |
| 20260905025908 | 55 | 152 | 2.0 | 5.0 | 0.00 | 0.00 | 0.00 | 72 | 972.0 |
| 20260905025433 | 55 | 152 | 3.0 | 7.0 | 0.00 | 0.00 | 0.00 | 72 | 971.8 |
| 20260905024958 | 55 | 152 | 0.0 | 0.0 | 0.00 | 0.00 | 0.00 | 72 | 971.7 |
| 20260905024518 | 56 | 152 | 0.0 | 1.0 | 0.00 | 0.00 | 0.00 | 72 | 971.4 |
| 20260905024039 | 56 | 230 | 1.0 | 1.0 | 0.00 | 0.00 | 0.00 | 72 | 971.6 |
| 20260905023608 | 56 | 186 | 1.0 | 1.0 | 0.00 | 0.00 | 0.00 | 72 | 971.5 |
| 20260905023133 | 56 | 170 | 1.0 | 1.0 | 0.00 | 0.00 | 0.00 | 72 | 971.5 |
| 20260905022708 | 56 | 170 | 0.0 | 1.0 | 0.00 | 0.00 | 0.00 | 72 | 971.6 |
| 20260905022306 | 56 | 170 | 0.0 | 1.0 | 0.00 | 0.00 | 0.00 | 72 | 971.6 |
| 20260905021838 | 56 | 358 | 0.0 | 1.0 | 0.00 | 0.00 | 0.00 | 72 | 971.7 |
| 20260905021408 | 56 | 358 | 2.0 | 1.0 | 0.00 | 0.00 | 0.00 | 72 | 972.0 |
| 20260905020948 | 57 | 358 | 1.0 | 3.0 | 0.00 | 0.00 | 0.00 | 72 | 972.1 |
| 20260905020458 | 57 | 358 | 1.0 | 1.0 | 0.00 | 0.00 | 0.00 | 72 | 971.6 |
| 20260905020013 | 59 | 358 | 1.0 | 7.0 | 0.00 | 0.00 | 0.00 | 72 | 971.6 |
| 20260905015533 | 59 | 349 | 0.0 | 7.0 | 0.00 | 0.00 | 0.00 | 63 | 971.6 |
| 20260905015100 | 60 | 327 | 6.0 | 7.0 | 0.00 | 0.00 | 0.00 | 63 | 971.7 |
| 20260905014638 | 60 | 7 | 5.0 | 13.0 | 0.00 | 0.00 | 0.00 | 66 | 971.5 |
| 20260905014223 | 60 | 345 | 2.0 | 14.0 | 0.00 | 0.00 | 0.00 | 66 | 971.5 |
| 20260905013753 | 61 | 271 | 2.0 | 5.0 | 0.00 | 0.00 | 0.00 | 66 | 971.4 |
| 20260905013328 | 61 | 271 | 1.0 | 1.0 | 0.00 | 0.00 | 0.00 | 66 | 971.5 |
| 20260905012848 | 61 | 271 | 2.0 | 5.0 | 0.00 | 0.00 | 0.00 | 66 | 971.6 |
| 20260905012418 | 61 | 271 | 4.0 | 5.0 | 0.00 | 0.00 | 0.00 | 66 | 971.5 |
| 20260905012013 | 61 | 271 | 4.0 | 3.0 | 0.00 | 0.00 | 0.00 | 66 | 971.5 |
| 20260905011523 | 61 | 271 | 0.0 | 1.0 | 0.00 | 0.00 | 0.00 | 66 | 970.9 |
| 20260905011043 | 61 | 271 | 0.0 | 1.0 | 0.00 | 0.00 | 0.00 | 66 | 971.0 |
| 20260905010623 | 61 | 271 | 0.0 | 3.0 | 0.00 | 0.00 | 0.00 | 66 | 970.7 |
| 20260905010138 | 61 | 271 | 0.0 | 1.0 | 0.00 | 0.00 | 0.00 | 66 | 970.8 |
| 20260905005713 | 61 | 271 | 0.0 | 1.0 | 0.00 | 0.00 | 0.00 | 65 | 970.7 |
| 20260905005253 | 61 | 271 | 0.0 | 1.0 | 0.00 | 0.00 | 0.00 | 65 | 970.7 |
| 20260905004838 | 61 | 271 | 0.0 | 3.0 | 0.00 | 0.00 | 0.00 | 65 | 970.5 |
| 20260905004428 | 61 | 271 | 0.0 | 1.0 | 0.00 | 0.00 | 0.00 | 65 | 970.7 |
| 20260905004013 | 61 | 262 | 0.0 | 1.0 | 0.00 | 0.00 | 0.00 | 66 | 970.5 |
| 20260905003548 | 61 | 262 | 1.0 | 3.0 | 0.00 | 0.00 | 0.00 | 66 | 970.6 |
| 20260905003123 | 61 | 262 | 0.0 | 0.0 | 0.00 | 0.00 | 0.00 | 66 | 970.3 |
| 20260905002659 | 61 | 262 | 1.0 | 3.0 | 0.00 | 0.00 | 0.00 | 66 | 970.4 |
| 20260905002258 | 61 | 262 | 0.0 | 3.0 | 0.00 | 0.00 | 0.00 | 66 | 970.3 |
| 20260905001843 | 61 | 237 | 0.0 | 3.0 | 0.00 | 0.00 | 0.00 | 66 | 970.0 |
| 20260905001402 | 61 | 215 | 0.0 | 3.0 | 0.00 | 0.00 | 0.00 | 66 | 970.3 |
| 20260905000933 | 61 | 216 | 1.0 | 3.0 | 0.00 | 0.00 | 0.00 | 66 | 970.2 |
| 20260905000458 | 61 | 216 | 1.0 | 3.0 | 0.00 | 0.00 | 0.00 | 66 | 970.4 |
| 20260905000023 | 61 | 345 | 1.0 | 1.0 | 0.00 | 0.00 | 0.00 | 66 | 970.3 |
| 20260904235551 | 61 | 345 | 0.0 | 5.0 | 0.00 | 0.00 | 0.00 | 66 | 970.3 |
| 20260904235128 | 61 | 345 | 4.0 | 7.0 | 0.00 | 0.00 | 0.00 | 71 | 970.4 |